Voltar ao catálogo

TAIZHOU

AtivoComunicaçõesSSO
NORAD 63986·PAYLOAD·🇨🇳 China
Este nome de satélite ainda não foi confirmado por fontes oficiais.

Lançado May 14, 2025 de Jiuquan Satellite Launch Center

Loading…

Próximas Passagens (próximas 24 horas)

TLE

AtualizadoSource: Space-Track

Época: Sep 14, 2026, 20:52 UTC

1 63986U 25100E   26257.86996346  .00012163  00000-0  54340-3 0  9995
2 63986  97.3551 328.5469 0010041  17.4603 342.6977 15.21439171 44086

Acompanhe TAIZHOU em tempo real com AllMySat

Download on the App Store